Regional Weather Roundup
Issued by NWS Binghamton, NY

Home | Current Version | Previous Version | Text Only | Print | Product List | Glossary On
Versions: 1 2 3 4 5 6 7 8 9 10 11 12 13 14 15 16 17 18 19 20 21 22 23 24 25 26 27 28 29 30 31 32 33 34 35 36 37 38 39 40 41 42 43 44 45 46 47 48 49 50
481
ASUS41 KBGM 221410
RWRBGM

REGIONAL WEATHER ROUNDUP
NATIONAL WEATHER SERVICE BINGHAMTON NY
1000 AM EDT SUN OCT 22 2017

Note: "fair" indicates few or no clouds below 12,000 feet with no
significant weather and/or obstructions to visibility.

* = Station(s) that does not report precipitation, such as rain,
snow, etc, also no thunder or fog.

NYZ009-015>018-022>025-036-037-044>046-055>057-062-221500
...Central New York...

CITY           SKY/WX    TMP DP  RH WIND       PRES   REMARKS
Binghamton     SUNNY     59  43  55 S6        30.37F
Cortland       FAIR      59  46  63 NE3       30.35F
Dansville      SUNNY     58  46  64 SE7       30.31F
Elmira         SUNNY     51  46  83 CALM      30.35F
Seneca Falls   SUNNY     63  45  51 S8        30.32S
Ithaca         SUNNY     63  45  51 S9        30.34F
Hamilton       SUNNY     61  43  51 S8        30.36F
Hornell        SUNNY     55  45  67 S3        30.36F
Monticello     SUNNY     55  44  66 CALM      30.42F
Oneonta        SUNNY     63 N/A N/A CALM      30.39S
Penn Yan       SUNNY     61  43  51 S12       30.32F
Rome           SUNNY     59  46  62 SE7       30.37F
Sidney         SUNNY     48  48 100 CALM      30.40S
Syracuse       MOSUNNY   59  48  67 E5        30.32F
$$

PAZ038>040-043-044-047-048-072-221500
...Northeast Pennsylvania...

CITY           SKY/WX    TMP DP  RH WIND       PRES   REMARKS
Hazleton       SUNNY     63  43  48 CALM      30.43S
Scranton       SUNNY     58  46  64 CALM      30.39F
$$
&&
KEY
WCI = Wind Chill Index
VSB = Visibility
HX  = Heat Index
$$




USA.gov is the U.S. government's official web portal to all federal, state and local government web resources and services.